SCP
0 0 0 0 0 0 0 0 0 0 0 0 0 0 0 0 0 0 0 0 0 0 0 0 0 0 0 0 0 0 0 0 0 0 0 0 0 0 0 0 0 0 0 0 0 0 0
0 0 0 0 0 0 0 0 0 0 0 0 0 0 0 0 0 0 0 0 0 0 0 0 0 0 0 0 0 0 0 0 0 0 0 0 0 0 0 0 0 0 0 0 0 0 0
0 0 0 0 0 0 0 0 0 0 0 0 0 0 0 0 0 0 0 0 0 0 0 0 0 0 0 0 0 0 0 0 0 0 0 0 0 0 0 0 0 0 0 0 0 0 0
0 0 0 0 0 0 0 0 0 0 0 0 0 0 0 0 0 0 0 0 0 0 0 0 0 0 0 0 0 0 0 0 0 0 0 0 0 0 0 0 0 0 0 0 0 0 0
0 0 0 0 0 0 0 0 0 0 0 0 0 0 0 0 0 0 0 0 0 0 0 0 0 0 0 0 0 0 0 0 0 0 0 0 0 0 0 0 0 0 0 0 0 -0 0
0 0 0 0 0 0 0 0 0 0 0 0 0 0 0 0 0 0 0 0 0 0 0 0 0 0 0 0 0 0 0 0 0 0 0 0 0 0 0 0 0 0 0 0 0 0 0
0 0 0 0 0 0 0 0 0 0 0 0 0 0 0 0 0 0 0 -0 0 0 0 0 0 0 0 0 0 0 0 0 0 0 0 0 0 0 0 0 0 0 0 0 0 0 0
0 0 0 0 0 0 0 0 0 0 0 0 0 0 0 0 0 0 0 -0 0 0 0 0 0 0 0 0 0 0 0 0 0 0 0 0 0 0 0 0 0 0 0 0 0 0 0
0 0 0 0 0 0 0 0 0 0 0 0 -0 -0 0 0 0 0 0 -0 0 0 0 0 0 0 0 0 0 0 0 0 0 0 0 0 0 0 0 0 0 0 0 0 0 0 0
0 0 0 0 0 0 0 0 0 0 -0 0 -0 -0 0 -0 0 -0 -0 -0 0 0 0 0 0 0 0 0 0 0 0 0 0 0 0 0 0 0 0 0 0 0 0 0 0 0 0
0 0 0 0 0 0 0 0 0 0 -0 -0 -0 -0 -0 -0 -0 0 -0 0 0 0 0 0 0 0 0 0 0 0 0 0 0 0 0 0 0 0 0 0 0 0 0 0 0 0 0
0 0 0 0 0 0 0 0 0 0 -0 -0 -0 -0 -0 0 -0 0 0 0 0 0 0 0 0 0 0 0 0 0 0 0 0 0 0 0 0 0 0 0 0 0 0 0 0 0 0
0 0 0 0 0 0 0 0 0 0 -0 -0 -0 -0 0 -0 0 0 0 -0 0 0 0 0 0 0 0 0 0 0 0 0 0 0 0 0 0 0 0 0 0 0 0 0 0 0 0
0 0 0 0 0 0 0 0 0 -0 -0 -0 -0 0 -0 -0 0 0 0 0 0 0 0 0 0 0 0 0 0 0 0 0 0 0 0 0 0 0 0 0 0 0 0 0 0 0 0
0 0 0 0 0 0 0 0 -0 -0 -0 -0 0 -0 0 0 0 0 0 0 0 0 0 0 0 0 0 0 0 0 0 0 0 0 0 0 0 0 0 0 0 0 0 0 0 0 0
0 0 0 0 0 0 0 0 -0 -0 -0 0 -0 0 0 0 0 0 0 0 0 0 0 0 0 0 0 0 0 0 0 0 0 0 0 0 0 0 0 0 0 0 0 0 0 0 0
0 0 0 0 0 0 0 0 -0 -0 -0 -0 0 0 0 0 0 0 0 0 0 0 0 0 0 0 0 0 0 0 0 0 0 0 0 0 0 0 0 0 0 0 0 0 0 0 0
0 0 0 0 0 0 -0 0 -0 -0 -0 0 0 0 0 0 0 0 0 0 0 0 0 0 0 0 0 0 0 0 0 0 0 0 0 0 0 0 0 0 0 0 0 0 0 0 0
0 0 0 0 0 -0 -0 0 -0 -0 -0 0 0 0 0 0 0 0 0 0 0 0 0 0 0 0 0 0 0 0 0 0 0 0 0 0 0 0 0 0 -0 0 0 0 0 0 0
0 0 0 0 0 -0 0 -0 -0 -0 -0 0 0 0 0 0 0 0 0 0 0 0 0 0 0 0 0 0 0 0 0 0 0 0 0 0 0 -0 -0 -0 0 0 0 0 0 0 0
0 0 0 0 0 -0 -0 -0 -0 -0 -0 -0 0 0 0 0 0 0 0 0 0 0 0 0 0 0 0 0 0 0 0 0 0 0 0 0 0 0 0 -0 0 0 0 0 0 0 0
0 0 0 0 0 -0 -0 -0 -0 -0 -0 0 0 0 0 0 0 0 0 0 0 0 0 0 0 0 0 0 0 0 0 0 0 0 -0 0 0 0 -0 -0 -0 0 0 0 0 0 0
0 0 0 0 0 -0 -0 -0 -0 -0 -0 0 0 0 0 0 0 0 0 0 0 0 0 0 0 0 0 0 0 0 0 0 0 -0 -0 0 0 0 0 0 -0 0 0 0 0 0 0
0 0 0 0 0 -0 0 -0 -0 -0 -0 0 0 0 0 0 0 0 0 0 0 0 0 0 0 0 0 0 0 0 0 0 -0 0 0 0 0 0 -0 -0 -0 0 0 0 0 0 0
0 0 0 0 0 0 -0 -0 -0 -0 -0 0 0 0 0 0 0 -0 0 0 0 0 0 0 0 0 0 0 0 0 0 0 0 -0 0 -0 -0 0 0 -0 -0 0 0 0 0 0 0
0 0 0 0 0 0 -0 -0 -0 -0 -0 -0 0 0 0 0 0 0 0 0 0 0 0 0 0 0 0 0 0 0 0 0 0 -0 0 0 -0 0 0 -0 -0 0 0 0 0 0 0
0 0 0 0 0 0 0 -0 0 0 0 0 0 0 0 0 0 0 -0 0 0 0 0 0 0 0 0 0 0 0 0 0 0 0 0 0 0 -0 -0 -0 -0 -0 -0 0 0 0 0
0 0 0 0 0 0 0 -0 -0 0 0 0 0 0 0 0 0 0 0 0 0 0 0 0 0 0 0 0 0 0 0 0 0 0 0 0 -0 0 0 -0 -0 -0 -0 0 0 0 0
0 0 0 0 0 0 0 -0 -0 0 0 0 0 0 0 0 0 0 0 0 0 0 0 -0 0 0 0 0 0 0 0 0 0 0 0 0 0 0 -0 -0 -0 -0 -0 0 0 -0 0
Wind_Speed_500mb
41 41 40 43 47 45 49 47 48 49 54 53 51 47 45 46 44 32 35 34 41 30 24 25 22 17 25 22 28 11 10 17 32 37 35 32 34 34 24 21 21 26 34 31 32 34 33
42 44 44 48 53 48 48 48 49 50 51 55 49 49 47 46 41 37 33 34 43 34 25 25 21 20 23 29 21 21 14 7 20 38 38 33 19 24 16 17 19 3 27 31 32 36 36
40 46 48 50 52 48 52 49 52 52 52 54 53 49 53 45 42 36 30 37 41 41 26 25 22 18 22 30 9 18 36 12 17 35 35 32 16 14 11 15 21 17 27 28 38 42 30
47 48 51 54 51 52 58 55 57 52 52 56 53 59 49 46 40 39 31 36 32 42 30 26 22 15 16 21 28 16 14 17 10 22 32 24 24 11 8 5 9 12 22 23 5 17 28
48 53 50 55 57 61 61 56 64 54 52 50 53 52 47 43 35 35 48 31 43 50 36 31 23 18 13 17 20 26 21 25 18 19 21 29 19 8 4 12 13 22 20 28 19 20 15
52 54 57 58 61 61 61 61 58 55 53 50 50 47 41 41 37 39 42 45 49 50 40 33 13 12 22 16 19 22 25 26 24 32 28 18 9 7 16 19 16 18 29 24 24 8 15
55 57 62 64 62 66 66 62 61 57 52 50 51 46 42 49 44 41 39 43 25 27 57 20 34 5 18 17 19 25 33 32 31 30 14 20 14 21 32 33 30 17 17 22 21 18 32
59 59 62 66 67 67 64 61 60 57 50 47 49 48 48 53 59 44 38 28 28 6 15 29 26 19 19 24 18 33 38 24 25 25 20 10 25 30 19 21 24 26 27 29 28 29 26
59 59 63 66 64 66 64 60 58 54 46 48 51 47 51 60 52 67 47 51 37 24 9 33 34 33 22 21 18 44 45 31 26 29 29 18 6 17 29 24 24 27 26 25 29 33 36
56 62 61 61 67 65 60 59 56 50 45 54 45 53 54 61 43 28 38 35 51 19 9 23 22 18 22 17 11 34 42 23 14 29 24 21 14 10 19 27 24 26 19 26 27 19 12
59 57 63 68 68 63 60 59 54 50 56 48 48 50 61 51 41 19 3 37 47 27 12 35 25 21 38 25 38 26 39 15 20 19 14 8 14 25 22 25 17 15 4 12 15 21 26
58 64 69 68 66 63 58 56 52 55 50 50 52 68 61 45 23 18 16 28 21 8 8 13 16 28 33 30 17 30 38 10 8 14 22 20 8 11 16 19 24 6 9 15 18 11 15
60 66 66 63 65 60 58 54 56 55 48 51 69 75 58 24 12 28 35 47 7 10 23 17 18 28 35 25 22 26 28 21 16 9 15 21 31 15 20 15 13 17 4 4 7 9 15
59 64 62 63 61 58 58 55 57 55 46 59 73 52 5 15 19 29 29 7 17 14 15 15 29 35 20 34 20 28 28 23 29 22 5 17 12 35 24 26 12 28 21 10 10 14 20
55 61 62 62 59 59 59 58 61 54 52 66 70 17 9 17 25 32 26 7 2 27 21 25 35 23 11 34 12 22 25 23 25 28 13 12 7 5 20 15 24 12 18 23 27 35 23
54 63 62 61 58 60 60 60 58 53 57 69 50 15 5 15 26 32 4 5 2 17 31 37 13 12 17 34 20 26 25 26 20 33 24 1 6 10 15 9 21 20 8 2 8 10 20
53 62 60 59 58 59 61 64 57 60 67 48 15 6 9 21 36 11 1 7 21 45 18 4 21 19 18 30 19 30 33 11 34 27 28 13 8 11 7 23 26 20 12 12 12 10 12
53 61 56 56 59 57 58 66 57 66 72 39 14 3 17 28 7 4 4 3 26 14 8 8 16 13 31 34 22 25 19 4 19 20 21 20 6 11 22 17 15 24 26 34 14 18 15
52 55 56 54 57 58 58 67 61 68 56 22 8 8 14 11 5 3 6 7 11 6 7 5 10 5 13 26 11 11 16 9 22 23 21 22 9 7 4 1 21 20 30 36 35 31 40
50 54 54 52 54 55 55 62 60 67 47 20 6 4 10 11 2 22 13 8 11 12 17 20 17 20 19 25 5 16 13 8 20 23 12 21 9 14 13 17 10 12 28 32 29 19 35
46 47 51 46 50 50 51 59 56 59 47 14 18 7 5 3 4 14 12 7 5 7 7 7 8 7 7 8 9 7 11 13 12 15 13 9 7 14 32 44 40 39 44 47 40 41 33
43 47 50 45 47 50 48 54 51 54 40 44 10 8 17 5 17 16 9 14 14 7 2 6 10 10 6 7 4 9 12 12 10 18 19 8 6 8 30 40 35 29 42 38 36 40 36
41 42 43 44 43 47 46 50 49 45 48 24 27 16 4 1 14 10 8 11 11 10 9 14 9 7 7 8 7 1 6 13 9 13 22 8 4 4 12 21 37 18 6 16 21 28 18
39 40 40 40 39 42 43 43 46 35 37 25 19 8 8 5 10 10 8 6 15 3 9 9 6 2 12 9 6 6 15 20 21 22 20 11 11 5 12 22 6 7 11 16 19 29 30
37 38 39 38 41 43 40 39 42 33 33 26 24 10 7 6 11 13 8 9 11 9 4 5 8 8 7 5 3 6 5 7 19 31 27 23 15 6 6 13 31 13 14 7 5 12 29
35 36 38 36 34 35 36 36 40 35 28 20 18 13 4 7 5 7 15 12 8 8 8 6 5 4 3 3 3 3 3 5 7 11 2 12 18 9 5 8 8 10 10 4 7 6 24
33 34 37 38 39 38 34 36 37 33 28 21 10 13 2 7 8 7 14 11 11 11 1 4 2 2 7 5 6 5 6 4 5 6 10 8 5 12 14 8 18 15 13 1 7 12 23
33 32 35 37 39 39 39 39 35 32 31 25 12 13 17 6 15 4 10 7 13 15 6 9 4 3 3 7 6 3 4 5 7 6 6 13 13 8 8 9 10 10 15 10 10 22 15
31 32 34 35 37 36 38 38 37 32 32 29 13 14 18 11 10 8 15 19 19 9 7 11 2 1 6 1 3 3 4 6 7 4 5 9 12 5 10 6 19 21 20 20 12 20 21
Wind_Direction_500mb
354 355 353 347 344 342 335 335 333 331 332 330 324 317 316 310 268 285 263 253 245 258 269 255 243 206 179 215 243 246 214 211 208 197 194 192 202 209 218 212 215 238 254 242 261 259 256
348 345 341 343 336 336 328 330 330 329 328 325 321 310 315 313 301 275 274 254 240 244 255 242 233 202 193 231 226 238 232 233 200 200 194 196 219 217 259 218 209 288 260 267 254 255 250
343 341 338 332 326 325 324 324 325 322 322 321 318 306 310 307 308 277 282 248 237 227 236 226 223 200 224 229 233 228 222 227 202 198 191 192 202 189 239 227 227 265 264 262 249 243 237
339 333 328 330 326 322 321 324 316 315 317 317 316 306 305 307 294 287 283 237 242 224 215 211 207 191 240 225 229 229 191 198 177 190 193 178 174 172 249 136 191 238 246 258 180 227 238
334 326 327 326 323 323 322 322 314 315 310 313 312 304 306 307 303 295 266 265 223 215 202 197 180 191 240 248 208 200 181 184 166 142 157 154 149 137 190 232 229 220 257 221 240 197 241
333 330 329 323 321 320 318 316 317 316 314 318 310 310 309 307 303 303 282 266 224 207 188 176 177 183 227 215 178 177 176 178 163 140 127 140 126 168 215 207 219 233 221 247 263 171 235
333 330 325 322 322 318 319 320 320 317 314 314 316 316 308 302 307 291 309 277 198 169 185 171 177 159 142 147 141 162 170 167 167 169 167 175 207 214 224 228 260 267 282 277 280 287 289
329 331 329 327 322 320 324 326 321 318 314 316 320 312 306 301 297 276 294 266 255 29 173 189 170 150 150 155 146 165 167 166 175 183 126 159 224 233 255 265 255 256 263 267 285 281 295
336 330 332 330 325 328 328 325 323 320 319 325 318 312 310 310 280 278 263 252 222 252 216 176 169 169 163 178 165 172 178 193 194 197 190 198 200 240 234 228 241 240 257 272 276 302 291
336 337 337 333 333 333 330 327 325 323 322 322 313 314 322 325 309 272 226 238 237 245 185 155 189 189 168 174 181 176 179 174 196 206 192 230 200 201 216 230 234 257 266 272 275 290 274
337 336 329 335 335 333 333 332 330 331 330 323 316 323 322 320 294 249 210 207 186 212 179 150 158 166 170 177 130 176 178 191 190 187 168 194 217 223 228 233 233 263 3 279 276 275 304
340 331 337 337 338 338 336 336 337 334 329 322 322 324 313 317 261 227 190 176 180 219 152 135 141 167 160 184 147 149 178 202 223 211 214 247 167 212 209 225 225 63 259 260 257 271 261
338 336 340 341 342 341 340 341 338 336 328 325 330 324 306 247 227 197 166 136 207 256 156 142 164 161 166 172 157 170 177 184 177 168 212 232 232 199 229 214 199 207 209 277 216 208 249
337 339 343 342 344 345 344 342 341 336 330 331 333 333 331 199 170 160 153 127 223 130 129 162 145 151 166 159 179 172 176 195 212 216 175 203 197 198 179 213 197 205 209 221 259 239 298
338 342 345 345 346 348 345 345 343 337 334 335 334 351 79 159 156 165 149 184 23 146 136 140 133 145 131 174 154 178 196 191 204 205 211 190 244 145 173 202 207 177 213 246 283 282 279
341 344 348 348 349 348 348 349 344 339 336 338 340 355 52 174 159 155 174 79 23 114 138 142 121 180 155 169 168 184 180 203 203 209 216 72 247 176 179 199 214 221 338 142 212 270 269
344 347 349 350 351 352 348 347 348 344 340 342 336 76 70 128 149 147 346 40 103 130 133 143 146 147 156 168 179 182 187 134 200 191 199 206 227 125 139 209 204 197 227 234 298 228 270
348 344 352 353 354 353 352 349 352 348 355 7 13 94 151 129 99 234 102 296 124 120 97 96 123 144 159 165 169 182 175 82 190 182 183 194 208 250 242 241 225 238 216 225 231 230 234
350 349 350 351 355 356 354 352 353 358 5 14 36 51 59 70 135 94 85 78 99 150 52 109 114 108 146 161 164 184 192 119 175 180 174 165 207 274 230 167 233 233 248 245 244 265 253
354 353 354 351 357 357 357 357 359 8 7 40 55 45 18 18 113 136 111 85 114 57 68 81 96 123 133 163 23 169 147 156 183 200 68 178 220 238 270 321 357 232 250 252 244 253 265
351 352 351 354 357 0 0 360 5 12 25 65 25 36 358 75 95 109 103 87 101 108 69 70 95 120 132 145 171 161 163 147 163 186 185 229 242 261 265 274 280 272 269 270 261 256 253
350 353 350 354 357 1 4 1 8 17 29 47 52 3 349 245 154 142 138 162 176 106 99 81 108 121 149 122 74 177 187 205 197 171 202 219 260 287 281 274 265 273 278 277 265 267 259
351 356 352 353 356 358 2 3 7 24 24 26 13 2 340 360 196 168 139 159 150 144 67 62 108 118 118 57 5 284 226 288 294 182 196 206 197 281 268 321 305 272 257 282 282 289 254
348 357 353 352 351 354 357 2 3 23 30 11 6 350 336 164 191 192 154 139 157 128 103 97 83 42 66 49 326 246 240 243 243 245 231 213 189 212 291 304 265 15 316 254 268 288 330
344 353 355 355 356 355 356 360 357 10 20 42 32 15 338 309 203 188 181 174 155 149 120 107 93 123 59 25 309 259 192 221 232 224 230 213 225 275 276 309 276 298 336 315 335 303 354
337 347 350 350 349 347 352 348 350 0 7 23 27 29 301 297 235 247 216 206 182 195 173 182 131 190 161 257 217 272 272 325 156 148 158 240 224 217 323 299 295 35 24 8 140 30 11
329 339 343 345 348 344 335 333 341 349 353 7 10 4 280 269 321 266 214 213 202 210 101 102 107 141 181 196 225 237 253 347 268 210 170 151 168 223 242 261 278 304 354 109 321 345 350
322 330 334 336 342 346 343 340 337 340 340 347 327 343 16 296 285 266 231 207 197 221 222 134 143 154 142 218 224 241 234 285 284 269 190 189 181 199 196 228 274 20 315 334 345 312 308
316 323 327 328 333 341 343 340 334 331 333 340 316 332 334 266 272 248 229 234 237 253 153 158 338 160 225 332 258 349 283 253 303 290 213 249 234 324 222 255 321 308 284 302 297 289 295
Wind_Speed_850mb
41 41 40 43 47 45 49 47 48 49 54 53 51 47 45 46 44 32 35 34 41 30 24 25 22 17 25 22 28 11 10 17 32 37 35 32 34 34 24 21 21 26 34 31 32 34 33
42 44 44 48 53 48 48 48 49 50 51 55 49 49 47 46 41 37 33 34 43 34 25 25 21 20 23 29 21 21 14 7 20 38 38 33 19 24 16 17 19 3 27 31 32 36 36
40 46 48 50 52 48 52 49 52 52 52 54 53 49 53 45 42 36 30 37 41 41 26 25 22 18 22 30 9 18 36 12 17 35 35 32 16 14 11 15 21 17 27 28 38 42 30
47 48 51 54 51 52 58 55 57 52 52 56 53 59 49 46 40 39 31 36 32 42 30 26 22 15 16 21 28 16 14 17 10 22 32 24 24 11 8 5 9 12 22 23 5 17 28
48 53 50 55 57 61 61 56 64 54 52 50 53 52 47 43 35 35 48 31 43 50 36 31 23 18 13 17 20 26 21 25 18 19 21 29 19 8 4 12 13 22 20 28 19 20 15
52 54 57 58 61 61 61 61 58 55 53 50 50 47 41 41 37 39 42 45 49 50 40 33 13 12 22 16 19 22 25 26 24 32 28 18 9 7 16 19 16 18 29 24 24 8 15
55 57 62 64 62 66 66 62 61 57 52 50 51 46 42 49 44 41 39 43 25 27 57 20 34 5 18 17 19 25 33 32 31 30 14 20 14 21 32 33 30 17 17 22 21 18 32
59 59 62 66 67 67 64 61 60 57 50 47 49 48 48 53 59 44 38 28 28 6 15 29 26 19 19 24 18 33 38 24 25 25 20 10 25 30 19 21 24 26 27 29 28 29 26
59 59 63 66 64 66 64 60 58 54 46 48 51 47 51 60 52 67 47 51 37 24 9 33 34 33 22 21 18 44 45 31 26 29 29 18 6 17 29 24 24 27 26 25 29 33 36
56 62 61 61 67 65 60 59 56 50 45 54 45 53 54 61 43 28 38 35 51 19 9 23 22 18 22 17 11 34 42 23 14 29 24 21 14 10 19 27 24 26 19 26 27 19 12
59 57 63 68 68 63 60 59 54 50 56 48 48 50 61 51 41 19 3 37 47 27 12 35 25 21 38 25 38 26 39 15 20 19 14 8 14 25 22 25 17 15 4 12 15 21 26
58 64 69 68 66 63 58 56 52 55 50 50 52 68 61 45 23 18 16 28 21 8 8 13 16 28 33 30 17 30 38 10 8 14 22 20 8 11 16 19 24 6 9 15 18 11 15
60 66 66 63 65 60 58 54 56 55 48 51 69 75 58 24 12 28 35 47 7 10 23 17 18 28 35 25 22 26 28 21 16 9 15 21 31 15 20 15 13 17 4 4 7 9 15
59 64 62 63 61 58 58 55 57 55 46 59 73 52 5 15 19 29 29 7 17 14 15 15 29 35 20 34 20 28 28 23 29 22 5 17 12 35 24 26 12 28 21 10 10 14 20
55 61 62 62 59 59 59 58 61 54 52 66 70 17 9 17 25 32 26 7 2 27 21 25 35 23 11 34 12 22 25 23 25 28 13 12 7 5 20 15 24 12 18 23 27 35 23
54 63 62 61 58 60 60 60 58 53 57 69 50 15 5 15 26 32 4 5 2 17 31 37 13 12 17 34 20 26 25 26 20 33 24 1 6 10 15 9 21 20 8 2 8 10 20
53 62 60 59 58 59 61 64 57 60 67 48 15 6 9 21 36 11 1 7 21 45 18 4 21 19 18 30 19 30 33 11 34 27 28 13 8 11 7 23 26 20 12 12 12 10 12
53 61 56 56 59 57 58 66 57 66 72 39 14 3 17 28 7 4 4 3 26 14 8 8 16 13 31 34 22 25 19 4 19 20 21 20 6 11 22 17 15 24 26 34 14 18 15
52 55 56 54 57 58 58 67 61 68 56 22 8 8 14 11 5 3 6 7 11 6 7 5 10 5 13 26 11 11 16 9 22 23 21 22 9 7 4 1 21 20 30 36 35 31 40
50 54 54 52 54 55 55 62 60 67 47 20 6 4 10 11 2 22 13 8 11 12 17 20 17 20 19 25 5 16 13 8 20 23 12 21 9 14 13 17 10 12 28 32 29 19 35
46 47 51 46 50 50 51 59 56 59 47 14 18 7 5 3 4 14 12 7 5 7 7 7 8 7 7 8 9 7 11 13 12 15 13 9 7 14 32 44 40 39 44 47 40 41 33
43 47 50 45 47 50 48 54 51 54 40 44 10 8 17 5 17 16 9 14 14 7 2 6 10 10 6 7 4 9 12 12 10 18 19 8 6 8 30 40 35 29 42 38 36 40 36
41 42 43 44 43 47 46 50 49 45 48 24 27 16 4 1 14 10 8 11 11 10 9 14 9 7 7 8 7 1 6 13 9 13 22 8 4 4 12 21 37 18 6 16 21 28 18
39 40 40 40 39 42 43 43 46 35 37 25 19 8 8 5 10 10 8 6 15 3 9 9 6 2 12 9 6 6 15 20 21 22 20 11 11 5 12 22 6 7 11 16 19 29 30
37 38 39 38 41 43 40 39 42 33 33 26 24 10 7 6 11 13 8 9 11 9 4 5 8 8 7 5 3 6 5 7 19 31 27 23 15 6 6 13 31 13 14 7 5 12 29
35 36 38 36 34 35 36 36 40 35 28 20 18 13 4 7 5 7 15 12 8 8 8 6 5 4 3 3 3 3 3 5 7 11 2 12 18 9 5 8 8 10 10 4 7 6 24
33 34 37 38 39 38 34 36 37 33 28 21 10 13 2 7 8 7 14 11 11 11 1 4 2 2 7 5 6 5 6 4 5 6 10 8 5 12 14 8 18 15 13 1 7 12 23
33 32 35 37 39 39 39 39 35 32 31 25 12 13 17 6 15 4 10 7 13 15 6 9 4 3 3 7 6 3 4 5 7 6 6 13 13 8 8 9 10 10 15 10 10 22 15
31 32 34 35 37 36 38 38 37 32 32 29 13 14 18 11 10 8 15 19 19 9 7 11 2 1 6 1 3 3 4 6 7 4 5 9 12 5 10 6 19 21 20 20 12 20 21
Wind_Direction_850mb
354 355 353 347 344 342 335 335 333 331 332 330 324 317 316 310 268 285 263 253 245 258 269 255 243 206 179 215 243 246 214 211 208 197 194 192 202 209 218 212 215 238 254 242 261 259 256
348 345 341 343 336 336 328 330 330 329 328 325 321 310 315 313 301 275 274 254 240 244 255 242 233 202 193 231 226 238 232 233 200 200 194 196 219 217 259 218 209 288 260 267 254 255 250
343 341 338 332 326 325 324 324 325 322 322 321 318 306 310 307 308 277 282 248 237 227 236 226 223 200 224 229 233 228 222 227 202 198 191 192 202 189 239 227 227 265 264 262 249 243 237
339 333 328 330 326 322 321 324 316 315 317 317 316 306 305 307 294 287 283 237 242 224 215 211 207 191 240 225 229 229 191 198 177 190 193 178 174 172 249 136 191 238 246 258 180 227 238
334 326 327 326 323 323 322 322 314 315 310 313 312 304 306 307 303 295 266 265 223 215 202 197 180 191 240 248 208 200 181 184 166 142 157 154 149 137 190 232 229 220 257 221 240 197 241
333 330 329 323 321 320 318 316 317 316 314 318 310 310 309 307 303 303 282 266 224 207 188 176 177 183 227 215 178 177 176 178 163 140 127 140 126 168 215 207 219 233 221 247 263 171 235
333 330 325 322 322 318 319 320 320 317 314 314 316 316 308 302 307 291 309 277 198 169 185 171 177 159 142 147 141 162 170 167 167 169 167 175 207 214 224 228 260 267 282 277 280 287 289
329 331 329 327 322 320 324 326 321 318 314 316 320 312 306 301 297 276 294 266 255 29 173 189 170 150 150 155 146 165 167 166 175 183 126 159 224 233 255 265 255 256 263 267 285 281 295
336 330 332 330 325 328 328 325 323 320 319 325 318 312 310 310 280 278 263 252 222 252 216 176 169 169 163 178 165 172 178 193 194 197 190 198 200 240 234 228 241 240 257 272 276 302 291
336 337 337 333 333 333 330 327 325 323 322 322 313 314 322 325 309 272 226 238 237 245 185 155 189 189 168 174 181 176 179 174 196 206 192 230 200 201 216 230 234 257 266 272 275 290 274
337 336 329 335 335 333 333 332 330 331 330 323 316 323 322 320 294 249 210 207 186 212 179 150 158 166 170 177 130 176 178 191 190 187 168 194 217 223 228 233 233 263 3 279 276 275 304
340 331 337 337 338 338 336 336 337 334 329 322 322 324 313 317 261 227 190 176 180 219 152 135 141 167 160 184 147 149 178 202 223 211 214 247 167 212 209 225 225 63 259 260 257 271 261
338 336 340 341 342 341 340 341 338 336 328 325 330 324 306 247 227 197 166 136 207 256 156 142 164 161 166 172 157 170 177 184 177 168 212 232 232 199 229 214 199 207 209 277 216 208 249
337 339 343 342 344 345 344 342 341 336 330 331 333 333 331 199 170 160 153 127 223 130 129 162 145 151 166 159 179 172 176 195 212 216 175 203 197 198 179 213 197 205 209 221 259 239 298
338 342 345 345 346 348 345 345 343 337 334 335 334 351 79 159 156 165 149 184 23 146 136 140 133 145 131 174 154 178 196 191 204 205 211 190 244 145 173 202 207 177 213 246 283 282 279
341 344 348 348 349 348 348 349 344 339 336 338 340 355 52 174 159 155 174 79 23 114 138 142 121 180 155 169 168 184 180 203 203 209 216 72 247 176 179 199 214 221 338 142 212 270 269
344 347 349 350 351 352 348 347 348 344 340 342 336 76 70 128 149 147 346 40 103 130 133 143 146 147 156 168 179 182 187 134 200 191 199 206 227 125 139 209 204 197 227 234 298 228 270
348 344 352 353 354 353 352 349 352 348 355 7 13 94 151 129 99 234 102 296 124 120 97 96 123 144 159 165 169 182 175 82 190 182 183 194 208 250 242 241 225 238 216 225 231 230 234
350 349 350 351 355 356 354 352 353 358 5 14 36 51 59 70 135 94 85 78 99 150 52 109 114 108 146 161 164 184 192 119 175 180 174 165 207 274 230 167 233 233 248 245 244 265 253
354 353 354 351 357 357 357 357 359 8 7 40 55 45 18 18 113 136 111 85 114 57 68 81 96 123 133 163 23 169 147 156 183 200 68 178 220 238 270 321 357 232 250 252 244 253 265
351 352 351 354 357 0 0 360 5 12 25 65 25 36 358 75 95 109 103 87 101 108 69 70 95 120 132 145 171 161 163 147 163 186 185 229 242 261 265 274 280 272 269 270 261 256 253
350 353 350 354 357 1 4 1 8 17 29 47 52 3 349 245 154 142 138 162 176 106 99 81 108 121 149 122 74 177 187 205 197 171 202 219 260 287 281 274 265 273 278 277 265 267 259
351 356 352 353 356 358 2 3 7 24 24 26 13 2 340 360 196 168 139 159 150 144 67 62 108 118 118 57 5 284 226 288 294 182 196 206 197 281 268 321 305 272 257 282 282 289 254
348 357 353 352 351 354 357 2 3 23 30 11 6 350 336 164 191 192 154 139 157 128 103 97 83 42 66 49 326 246 240 243 243 245 231 213 189 212 291 304 265 15 316 254 268 288 330
344 353 355 355 356 355 356 360 357 10 20 42 32 15 338 309 203 188 181 174 155 149 120 107 93 123 59 25 309 259 192 221 232 224 230 213 225 275 276 309 276 298 336 315 335 303 354
337 347 350 350 349 347 352 348 350 0 7 23 27 29 301 297 235 247 216 206 182 195 173 182 131 190 161 257 217 272 272 325 156 148 158 240 224 217 323 299 295 35 24 8 140 30 11
329 339 343 345 348 344 335 333 341 349 353 7 10 4 280 269 321 266 214 213 202 210 101 102 107 141 181 196 225 237 253 347 268 210 170 151 168 223 242 261 278 304 354 109 321 345 350
322 330 334 336 342 346 343 340 337 340 340 347 327 343 16 296 285 266 231 207 197 221 222 134 143 154 142 218 224 241 234 285 284 269 190 189 181 199 196 228 274 20 315 334 345 312 308
316 323 327 328 333 341 343 340 334 331 333 340 316 332 334 266 272 248 229 234 237 253 153 158 338 160 225 332 258 349 283 253 303 290 213 249 234 324 222 255 321 308 284 302 297 289 295